When you browse on this site, cookies collect data to enhance your experience and personalize the content and advertising you see.
Visit our Privacy Policy to learn more. By continuing to use the site, you agree to this use of cookies and data.
  • In Hungary
  • List of Countries
  • For 7 days
  • Water Temperature
  • Satellite Maps
  • Weather Map
  • News
  • Weather Widgets
  • user-avatar
    Login

    Hourly Weather Łomża

    Today, 18 February, Monday

    Time Temperature Precipitation Wind Pressure Humidity
    00:00 +4°C° 0 mm 2 mps 757 mmHg 89%
    01:00 +4°C° 0 mm 2 mps 757 mmHg 90%
    02:00 +4°C° 0 mm 2 mps 757 mmHg 91%
    03:00 +5°C° 0 mm 1 mps 757 mmHg 92%
    04:00 +5°C° 0 mm 1 mps 756 mmHg 93%
    05:00 +5°C° 0 mm 1 mps 756 mmHg 93%
    06:00 +3°C° 0 mm 0 mps 756 mmHg 94%
    07:00 +3°C° 0 mm 0 mps 757 mmHg 94%
    08:00 +4°C° 0 mm 0 mps 757 mmHg 91%
    09:00 +6°C° 0 mm 1 mps 757 mmHg 88%
    10:00 +6°C° 0 mm 1 mps 757 mmHg 85%
    11:00 +7°C° 0 mm 1 mps 757 mmHg 80%
    12:00 +7°C° 0 mm 2 mps 756 mmHg 76%
    13:00 +8°C° 0 mm 2 mps 756 mmHg 71%
    14:00 +7°C° 0 mm 2 mps 756 mmHg 72%
    15:00 +7°C° 0 mm 2 mps 756 mmHg 73%
    16:00 +7°C° 0 mm 2 mps 755 mmHg 74%
    17:00 +6°C° 0 mm 2 mps 755 mmHg 78%
    18:00 +5°C° 0 mm 2 mps 755 mmHg 82%
    19:00 +4°C° 0 mm 3 mps 755 mmHg 86%
    20:00 +3°C° 0 mm 3 mps 754 mmHg 87%
    21:00 +3°C° 0 mm 3 mps 754 mmHg 88%
    22:00 +2°C° 0 mm 3 mps 754 mmHg 90%
    23:00 +2°C° 0 mm 3 mps 754 mmHg 90%

    Tomorrow, 19 February, Tuesday

    Time Temperature Precipitation Wind Pressure Humidity
    00:00 +2°C° 0 mm 3 mps 754 mmHg 91%
    01:00 +1°C° 0 mm 4 mps 753 mmHg 92%
    02:00 0°C° 0 mm 4 mps 753 mmHg 92%
    03:00 +1°C° 0 mm 3 mps 752 mmHg 92%
    04:00 +1°C° 0 mm 3 mps 752 mmHg 92%
    05:00 0°C° 0 mm 3 mps 751 mmHg 92%
    06:00 0°C° 0 mm 3 mps 751 mmHg 91%
    07:00 0°C° 0 mm 3 mps 751 mmHg 91%
    08:00 0°C° 0 mm 4 mps 750 mmHg 85%
    09:00 +3°C° 0 mm 4 mps 750 mmHg 79%
    10:00 +3°C° 0 mm 5 mps 749 mmHg 73%
    11:00 +5°C° 0 mm 5 mps 749 mmHg 68%
    12:00 +6°C° 0 mm 5 mps 749 mmHg 63%
    13:00 +7°C° 0 mm 6 mps 748 mmHg 59%
    14:00 +7°C° 0 mm 5 mps 748 mmHg 60%
    15:00 +7°C° 0 mm 5 mps 748 mmHg 61%
    16:00 +7°C° 0 mm 5 mps 747 mmHg 62%
    17:00 +6°C° 0 mm 5 mps 747 mmHg 66%
    18:00 +5°C° 0 mm 5 mps 747 mmHg 71%
    19:00 +4°C° 0 mm 4 mps 747 mmHg 75%
    20:00 +3°C° 0.1 mm 5 mps 747 mmHg 79%
    21:00 +5°C° 0.1 mm 5 mps 747 mmHg 84%
    22:00 +5°C° 0.1 mm 5 mps 747 mmHg 88%
    23:00 +4°C° 0.3 mm 4 mps 747 mmHg 89%

    Day after tomorrow, 20 February, Wednesday

    Time Temperature Precipitation Wind Pressure Humidity
    00:00 +4°C° 0.3 mm 4 mps 748 mmHg 89%
    01:00 +3°C° 0.3 mm 3 mps 748 mmHg 90%
    02:00 +3°C° 0 mm 4 mps 748 mmHg 89%
    03:00 +2°C° 0 mm 5 mps 748 mmHg 88%
    04:00 +2°C° 0 mm 5 mps 748 mmHg 88%
    05:00 +2°C° 0 mm 5 mps 748 mmHg 86%
    06:00 +2°C° 0 mm 5 mps 748 mmHg 85%
    07:00 +2°C° 0 mm 5 mps 749 mmHg 83%
    08:00 +2°C° 0 mm 6 mps 749 mmHg 80%
    09:00 +2°C° 0 mm 6 mps 749 mmHg 78%
    10:00 +3°C° 0 mm 6 mps 749 mmHg 75%
    11:00 +3°C° 0 mm 6 mps 750 mmHg 75%
    12:00 +3°C° 0 mm 6 mps 750 mmHg 75%
    13:00 +4°C° 0 mm 7 mps 750 mmHg 75%
    14:00 +4°C° 0.1 mm 7 mps 750 mmHg 75%
    15:00 +4°C° 0.1 mm 7 mps 750 mmHg 75%
    16:00 +4°C° 0.1 mm 7 mps 750 mmHg 75%
    17:00 +3°C° 0.1 mm 6 mps 751 mmHg 77%
    18:00 +3°C° 0.1 mm 6 mps 751 mmHg 79%
    19:00 +3°C° 0.1 mm 6 mps 751 mmHg 82%
    20:00 +2°C° 0.1 mm 6 mps 752 mmHg 83%
    21:00 +2°C° 0.1 mm 5 mps 752 mmHg 85%
    22:00 +2°C° 0.1 mm 5 mps 752 mmHg 86%
    23:00 +2°C° 0 mm 5 mps 752 mmHg 88%

    21 February, Thursday

    Time Temperature Precipitation Wind Pressure Humidity
    00:00 +2°C° 0 mm 5 mps 752 mmHg 90%
    01:00 +1°C° 0 mm 4 mps 752 mmHg 91%
    02:00 +1°C° 0 mm 4 mps 752 mmHg 93%
    03:00 +1°C° 0 mm 4 mps 752 mmHg 94%
    04:00 +2°C° 0 mm 3 mps 752 mmHg 96%
    05:00 +2°C° 0.3 mm 3 mps 752 mmHg 96%
    06:00 +3°C° 0.3 mm 3 mps 752 mmHg 96%
    07:00 +3°C° 0.3 mm 3 mps 752 mmHg 96%
    08:00 +3°C° 0.5 mm 3 mps 753 mmHg 94%
    09:00 +3°C° 0.5 mm 4 mps 753 mmHg 93%
    10:00 +4°C° 0.5 mm 4 mps 753 mmHg 91%
    11:00 +4°C° 0.2 mm 3 mps 753 mmHg 91%
    12:00 +4°C° 0.2 mm 3 mps 753 mmHg 91%
    13:00 +5°C° 0.2 mm 2 mps 753 mmHg 91%
    14:00 +4°C° 0.1 mm 2 mps 753 mmHg 91%
    15:00 +4°C° 0.1 mm 2 mps 754 mmHg 91%
    16:00 +4°C° 0.1 mm 2 mps 754 mmHg 91%
    17:00 +3°C° 0 mm 2 mps 754 mmHg 88%
    18:00 +2°C° 0 mm 3 mps 755 mmHg 84%
    19:00 +1°C° 0 mm 3 mps 756 mmHg 81%
    20:00 +1°C° 0 mm 3 mps 756 mmHg 76%
    21:00 0°C° 0 mm 3 mps 757 mmHg 70%
    22:00 0°C° 0 mm 3 mps 758 mmHg 65%
    23:00 -1°C° 0 mm 3 mps 758 mmHg 64%

    22 February, Friday

    Time Temperature Precipitation Wind Pressure Humidity
    00:00 -1°C° 0 mm 3 mps 759 mmHg 63%
    01:00 -2°C° 0 mm 3 mps 759 mmHg 62%
    02:00 -2°C° 0 mm 3 mps 760 mmHg 62%
    03:00 -2°C° 0 mm 3 mps 760 mmHg 62%
    04:00 -4°C° 0 mm 3 mps 761 mmHg 61%
    05:00 -4°C° 0 mm 3 mps 761 mmHg 61%
    06:00 -4°C° 0 mm 3 mps 762 mmHg 60%
    07:00 -4°C° 0 mm 3 mps 763 mmHg 60%
    08:00 -2°C° 0 mm 3 mps 763 mmHg 55%
    09:00 -2°C° 0 mm 3 mps 764 mmHg 50%
    10:00 -1°C° 0 mm 3 mps 765 mmHg 46%
    11:00 -1°C° 0 mm 3 mps 765 mmHg 42%
    12:00 0°C° 0 mm 3 mps 766 mmHg 38%
    13:00 +1°C° 0 mm 3 mps 766 mmHg 34%
    14:00 0°C° 0 mm 3 mps 766 mmHg 36%
    15:00 0°C° 0 mm 3 mps 767 mmHg 37%
    16:00 +1°C° 0 mm 2 mps 767 mmHg 38%
    17:00 -1°C° 0 mm 2 mps 768 mmHg 41%
    18:00 -2°C° 0 mm 2 mps 768 mmHg 43%
    19:00 -2°C° 0 mm 2 mps 769 mmHg 46%
    20:00 -3°C° 0 mm 2 mps 769 mmHg 45%
    21:00 -3°C° 0 mm 2 mps 769 mmHg 45%
    22:00 -1°C° 0 mm 1 mps 769 mmHg 45%
    23:00 -1°C° 0 mm 1 mps 770 mmHg 44%

    23 February, Saturday

    Time Temperature Precipitation Wind Pressure Humidity
    00:00 -1°C° 0 mm 1 mps 770 mmHg 44%
    01:00 -1°C° 0 mm 1 mps 770 mmHg 44%
    02:00 -1°C° 0 mm 1 mps 770 mmHg 44%
    03:00 -3°C° 0 mm 2 mps 770 mmHg 44%
    04:00 -3°C° 0 mm 2 mps 769 mmHg 44%
    05:00 -3°C° 0 mm 2 mps 769 mmHg 43%
    06:00 -2°C° 0 mm 3 mps 769 mmHg 42%
    07:00 -2°C° 0 mm 3 mps 769 mmHg 41%
    08:00 -2°C° 0 mm 4 mps 769 mmHg 40%
    09:00 -1°C° 0 mm 4 mps 768 mmHg 39%
    10:00 0°C° 0 mm 5 mps 768 mmHg 39%
    11:00 +1°C° 0 mm 5 mps 768 mmHg 40%
    12:00 +2°C° 0 mm 5 mps 767 mmHg 41%
    13:00 +3°C° 0 mm 6 mps 766 mmHg 43%
    14:00 +2°C° 0 mm 5 mps 766 mmHg 50%
    15:00 +3°C° 0 mm 4 mps 766 mmHg 57%
    16:00 +3°C° 0 mm 4 mps 765 mmHg 65%
    17:00 +1°C° 0 mm 4 mps 765 mmHg 72%
    18:00 +2°C° 0 mm 3 mps 765 mmHg 80%
    19:00 +2°C° 0 mm 3 mps 764 mmHg 87%
    20:00 +1°C° 0 mm 3 mps 764 mmHg 90%
    21:00 +1°C° 0 mm 3 mps 764 mmHg 93%
    22:00 +2°C° 0 mm 2 mps 764 mmHg 95%
    23:00 +2°C° 0 mm 2 mps 763 mmHg 96%
    Show more